EW8262 Weather Reports


time (UTC)temp
C
wind
direction
speed
KPH
gust
KPH
rain 1hr
cm
rain 24hr
cm
rain mn
cm
humidity
%
barometer
mb
20260510213015 14 90 3.2 12.9 0.00 0.00 0.00 34 1019.5
20260510212015 14 315 6.4 14.5 0.00 0.00 0.00 34 1019.5
20260510211015 14 315 4.8 12.9 0.00 0.00 0.00 35 1019.3
20260510210015 14 315 6.4 16.1 0.00 0.00 0.00 37 1019.3
20260510205015 14 293 4.8 14.5 0.00 0.00 0.00 37 1019.3
20260510204015 14 315 6.4 16.1 0.00 0.00 0.00 36 1019.3
20260510203037 13 293 6.4 11.3 0.00 0.00 0.00 36 1019.4
20260510202017 13 338 4.8 11.3 0.00 0.00 0.00 39 1019.3
20260510201017 13 338 6.4 16.1 0.00 0.00 0.00 39 1019.3
20260510200017 13 23 6.4 16.1 0.00 0.00 0.00 35 1019.3
20260510195017 13 338 6.4 17.7 0.00 0.00 0.00 40 1019.4
20260510194017 13 315 3.2 14.5 0.00 0.00 0.00 43 1019.3
20260510193017 14 338 4.8 11.3 0.00 0.00 0.00 41 1019.2
20260510192017 14 338 4.8 20.9 0.00 0.00 0.00 42 1019.2
20260510191017 13 338 8.0 14.5 0.00 0.00 0.00 41 1019.2
20260510190018 13 0 4.8 14.5 0.00 0.00 0.00 40 1019.2
20260510185017 13 315 6.4 14.5 0.00 0.00 0.00 41 1019.2
20260510184017 13 338 4.8 14.5 0.00 0.00 0.00 42 1019.2
20260510183017 13 338 6.4 14.5 0.00 0.00 0.00 43 1019.2
20260510182037 13 338 6.4 12.9 0.00 0.00 0.00 41 1019.2
20260510181017 13 338 4.8 9.7 0.00 0.00 0.00 41 1019.2
20260510180017 13 315 4.8 16.1 0.00 0.00 0.00 46 1019.1
20260510175017 13 315 6.4 16.1 0.00 0.00 0.00 44 1019.2
20260510174017 13 0 3.2 12.9 0.00 0.00 0.00 41 1019.1
20260510173017 13 338 6.4 12.9 0.00 0.00 0.00 42 1019.0
20260510172037 13 315 6.4 16.1 0.00 0.00 0.00 42 1019.2
20260510171017 13 315 4.8 16.1 0.00 0.00 0.00 42 1019.1
20260510170017 13 338 3.2 11.3 0.00 0.00 0.00 46 1019.3
20260510165017 13 270 6.4 12.9 0.00 0.00 0.00 47 1019.3
20260510164017 12 315 4.8 14.5 0.00 0.00 0.00 43 1019.4
20260510163017 12 0 4.8 14.5 0.00 0.00 0.00 45 1019.4
20260510162017 12 338 6.4 19.3 0.00 0.00 0.00 45 1019.4
20260510161017 12 315 6.4 16.1 0.00 0.00 0.00 48 1019.2
20260510160017 12 315 6.4 17.7 0.00 0.00 0.00 45 1019.2
20260510155017 11 315 6.4 14.5 0.00 0.00 0.00 48 1019.2
20260510154017 11 315 4.8 14.5 0.00 0.00 0.00 49 1019.0
20260510153037 11 315 4.8 17.7 0.00 0.00 0.00 51 1019.0
20260510152017 10 315 4.8 12.9 0.00 0.00 0.00 55 1019.0
20260510151018 10 315 4.8 12.9 0.00 0.00 0.00 59 1019.1
20260510150037 9 293 6.4 12.9 0.00 0.00 0.00 61 1018.9
20260510145037 8 315 4.8 9.7 0.00 0.00 0.00 62 1019.0
20260510144017 8 315 3.2 11.3 0.00 0.00 0.00 63 1019.0
20260510143017 8 293 3.2 9.7 0.00 0.00 0.00 65 1019.0
20260510142017 8 338 1.6 4.8 0.00 0.00 0.00 66 1018.9
20260510141017 8 293 1.6 4.8 0.00 0.00 0.00 67 1018.8
20260510140017 8 315 4.8 12.9 0.00 0.00 0.00 66 1018.8
20260510135017 7 293 3.2 6.4 0.00 0.00 0.00 67 1018.7
20260510134037 7 338 3.2 14.5 0.00 0.00 0.00 68 1018.6
20260510133036 7 338 3.2 14.5 0.00 0.00 0.00 68 1018.5
20260510132017 7 315 1.6 4.8 0.00 0.00 0.00 71 1018.4
20260510131017 7 338 1.6 4.8 0.00 0.00 0.00 73 1018.4
20260510130016 6 0.0 1.6 0.00 0.00 0.00 76 1018.3
20260510125016 6 0.0 3.2 0.00 0.00 0.00 76 1018.3
20260510124037 5 0.0 3.2 0.00 0.00 0.00 76 1018.1
20260510123016 5 0.0 1.6 0.00 0.00 0.00 83 1017.9
20260510122016 4 0.0 3.2 0.00 0.00 0.00 81 1018.0
20260510121016 4 0.0 1.6 0.00 0.00 0.00 83 1017.9
20260510120017 4 0.0 1.6 0.00 0.00 0.00 82 1017.8
20260510115017 3 0.0 0.0 0.00 0.00 0.00 81 1017.6
20260510114017 3 0.0 0.0 0.00 0.00 0.00 81 1017.5
20260510113017 3 0.0 0.0 0.00 0.00 0.00 79 1017.4
20260510112016 3 0.0 0.0 0.00 0.00 0.00 78 1017.3
20260510111016 3 0.0 0.0 0.00 0.00 0.00 77 1017.1
20260510110016 3 0.0 0.0 0.00 0.00 0.00 77 1017.0
20260510105017 3 0.0 0.0 0.00 0.00 0.00 76 1016.8
20260510104016 3 0.0 0.0 0.00 0.00 0.00 76 1016.7
20260510103016 3 0.0 0.0 0.00 0.05 0.00 76 1016.5
20260510102016 3 0.0 0.0 0.00 0.15 0.00 75 1016.4
20260510101016 3 0.0 0.0 0.00 0.18 0.00 75 1016.2
20260510100016 3 0.0 0.0 0.00 0.18 0.00 75 1016.1
20260510095016 3 0.0 0.0 0.00 0.18 0.00 76 1016.1
20260510094016 3 0.0 3.2 0.00 0.20 0.00 78 1015.9
20260510093016 2 0.0 3.2 0.00 0.23 0.00 80 1015.8
20260510092016 2 0.0 8.0 0.00 0.25 0.00 84 1015.6
20260510091016 2 338 1.6 4.8 0.00 0.25 0.00 86 1015.5
20260510090016 2 0.0 0.0 0.00 0.25 0.00 86 1015.3
20260510085016 1 0.0 0.0 0.00 0.25 0.00 85 1015.0
20260510084016 1 0.0 0.0 0.00 0.25 0.00 85 1014.9
20260510083016 1 0.0 0.0 0.00 0.25 0.00 84 1014.8
20260510082016 1 0.0 0.0 0.00 0.25 0.00 83 1014.5
20260510081036 1 0.0 0.0 0.00 0.25 0.00 82 1014.5
20260510080016 2 0.0 0.0 0.00 0.25 0.00 80 1014.4
20260510075016 2 0.0 0.0 0.00 0.25 0.00 77 1014.4
20260510074016 2 0.0 0.0 0.00 0.25 0.00 75 1014.3
20260510073016 2 0.0 0.0 0.00 0.25 0.00 75 1014.4
20260510072016 2 0.0 0.0 0.00 0.25 0.00 75 1014.4
20260510071016 2 0.0 0.0 0.00 0.25 0.00 74 1014.4
20260510070117 2 0.0 0.0 0.00 0.25 0.00 72 1014.3
20260510065016 3 0.0 0.0 0.00 0.25 0.00 70 1014.2
20260510064016 3 0.0 0.0 0.00 0.25 0.00 69 1014.2
20260510063036 3 0.0 0.0 0.00 0.25 0.00 68 1014.2
20260510062016 3 0.0 0.0 0.00 0.25 0.00 68 1014.3
20260510061016 4 0.0 0.0 0.00 0.25 0.00 69 1014.2
20260510060036 4 0.0 0.0 0.00 0.25 0.00 68 1014.2
20260510055016 5 0.0 0.0 0.00 0.25 0.00 67 1014.2
20260510054036 5 0.0 0.0 0.00 0.25 0.00 67 1014.1
20260510053016 5 0.0 0.0 0.00 0.25 0.00 65 1014.1
20260510052016 5 0.0 0.0 0.00 0.25 0.00 63 1014.0
20260510051036 6 0.0 0.0 0.00 0.25 0.00 61 1013.9
20260510050016 6 0.0 0.0 0.00 0.25 0.25 58 1013.9
20260510045016 7 0.0 0.0 0.00 0.25 0.25 56 1013.8
20260510044016 7 0.0 0.0 0.00 0.25 0.25 54 1013.7
20260510043016 7 0.0 0.0 0.00 0.25 0.25 52 1013.7
20260510042015 8 0.0 0.0 0.00 0.25 0.25 50 1013.7
20260510041015 8 0.0 0.0 0.00 0.25 0.25 48 1013.8
20260510040016 8 0.0 3.2 0.00 0.25 0.25 48 1013.7
20260510035036 9 0.0 1.6 0.00 0.25 0.25 48 1013.7
20260510034016 9 315 1.6 8.0 0.00 0.25 0.25 47 1013.6
20260510033016 9 315 3.2 8.0 0.00 0.25 0.25 47 1013.5
20260510032036 10 315 1.6 3.2 0.00 0.25 0.25 46 1013.3
20260510031015 10 293 1.6 4.8 0.00 0.25 0.25 46 1013.1
20260510030036 10 315 1.6 4.8 0.00 0.25 0.25 45 1012.9
20260510025016 10 315 3.2 6.4 0.00 0.25 0.25 45 1012.8
20260510024015 10 338 3.2 12.9 0.00 0.25 0.25 43 1012.5
20260510023016 10 293 3.2 9.7 0.00 0.25 0.25 43 1012.3
20260510022056 10 293 1.6 4.8 0.00 0.25 0.25 43 1012.0
20260510021015 10 293 3.2 12.9 0.00 0.25 0.25 42 1011.7
20260510020036 11 315 3.2 12.9 0.00 0.25 0.25 41 1011.5
20260510015015 11 293 1.6 4.8 0.00 0.25 0.25 42 1011.3
20260510014015 11 315 1.6 9.7 0.00 0.25 0.25 41 1011.1
20260510013017 11 315 3.2 6.4 0.00 0.25 0.25 39 1011.0
20260510012015 11 315 1.6 4.8 0.00 0.25 0.25 39 1010.8
20260510011016 12 338 3.2 14.5 0.00 0.25 0.25 38 1010.7
20260510010015 12 315 1.6 8.0 0.00 0.25 0.25 38 1010.5
20260510005015 12 293 4.8 11.3 0.00 0.25 0.25 38 1010.3
20260510004016 12 315 1.6 8.0 0.00 0.25 0.25 38 1010.2
20260510003016 13 0.0 4.8 0.00 0.25 0.25 38 1010.1
20260510002015 13 315 3.2 6.4 0.00 0.25 0.25 36 1010.1
20260510001015 13 338 3.2 14.5 0.00 0.25 0.25 36 1009.9
20260510000016 14 338 4.8 12.9 0.00 0.25 0.25 34 1009.8
20260509235015 15 315 4.8 12.9 0.00 0.25 0.25 33 1009.8
20260509234018 15 338 4.8 14.5 0.00 0.25 0.25 34 1009.7
20260509233015 15 315 4.8 14.5 0.00 0.25 0.25 34 1009.6
20260509232035 15 315 3.2 14.5 0.00 0.25 0.25 34 1009.5
20260509231015 15 315 3.2 14.5 0.00 0.25 0.25 35 1009.4
20260509230015 15 338 3.2 9.7 0.00 0.25 0.25 34 1009.4
20260509225015 15 293 6.4 14.5 0.00 0.25 0.25 33 1009.2
20260509224016 15 315 4.8 12.9 0.00 0.25 0.25 34 1009.1
20260509223015 15 315 4.8 12.9 0.00 0.25 0.25 34 1009.1
20260509222015 15 338 3.2 8.0 0.00 0.25 0.25 34 1009.1
20260509221015 15 315 4.8 12.9 0.00 0.25 0.25 34 1009.1
20260509220015 15 315 6.4 20.9 0.00 0.25 0.25 35 1009.0
20260509215015 15 338 6.4 20.9 0.00 0.25 0.25 34 1009.1
20260509214015 15 293 8.0 22.5 0.00 0.25 0.25 33 1009.0